Regional Weather Roundup
Issued by NWS

Home | Current Version | Previous Version | Graphics & Text | Print | Product List | Glossary On
Versions: 1 2 3 4 5 6 7 8 9 10 11 12 13 14 15 16 17 18 19 20 21 22 23 24 25 26 27 28 29 30 31 32 33 34 35 36 37 38 39 40 41 42 43 44 45 46 47 48 49 50
000
ASUS44 KMEG 221010
RWRTN
TENNESSEE HOURLY STATE WEATHER ROUNDUP
NATIONAL WEATHER SERVICE MEMPHIS TN
500 AM CDT FRI AUG 22 2014

TNZ002-004-019-021-049-052-054-088>092-221100-
WEST TENNESSEE

CITY           SKY/WX    TMP DP  RH WIND       PRES   REMARKS
MEMPHIS INTL   CLEAR     77  72  84 SW8       30.05S
NWS MEMPHIS      N/A     78 N/A N/A MISG        N/A
JACKSON        CLEAR     75  72  90 S7        30.05R
DYERSBURG      CLEAR     75  64  69 CALM      30.04R
UNION CITY     CLEAR     72  72 100 S3        30.01R
PARIS          CLEAR     72  70  94 SW6       30.04R
HUNTINGDON     CLEAR     73  71  93 SW3       30.04S
LEXINGTON      CLEAR     72  72 100 CALM      30.05S
SAVANNAH       CLEAR     73  73 100 SW3       30.07S
$$

TNZ008-025-027-028-033-062-065-066-221100-
NORTH MIDDLE TENNESSEE

CITY           SKY/WX    TMP DP  RH WIND       PRES   REMARKS
NASHVILLE      PTCLDY    74  72  93 S3        30.05R
DICKSON        PTCLDY    75  72  88 SW7       30.05S
PORTLAND       PTCLDY    75  72  88 SW5       30.03F
CLARKSVILLE    CLEAR     74  72  93 SW3       30.02F
LEBANON        PTCLDY    73  70  91 CALM      30.04S
SMYRNA         PTCLDY    72  71  96 CALM      30.06R
MURFREESBORO   PTCLDY    73  70  91 CALM      30.05R
COOKEVILLE     CLEAR     70  70 100 CALM      30.08S
GALLATIN       PTCLDY    73  73 100 CALM      30.05S
CROSSVILLE     MOCLDY    69  67  93 CALM      30.14R FOG
$$

TNZ061-075-076-078-094-096-097-221100-
SOUTH MIDDLE TENNESSEE

CITY           SKY/WX    TMP DP  RH WIND       PRES   REMARKS
LEWISBURG      PTCLDY    71  68  90 CALM      30.06R
FAYETTEVILLE   CLEAR     72  70  94 CALM      30.09R
TULLAHOMA      CLEAR     70  66  88 CALM      30.10R
WINCHESTER     CLEAR     72  70  94 CALM      30.09R
MCMINNVILLE    MOCLDY    70  70 100 CALM      30.09R VSB 1/2
COLUMBIA       CLEAR     73  73 100 CALM      30.06R
SHELBYVILLE    CLEAR     72  72 100 CALM      30.09R
$$

TNZ017-018-042-046-047-221100-
NORTHEAST TENNESSEE

CITY           SKY/WX    TMP DP  RH WIND       PRES   REMARKS
TRI CITIES     FOG       70  68  93 CALM      30.12R VSB 1/4
ELIZABETHTON   CLOUDY    68  66  94 CALM      30.13R
$$

TNZ012-013-036-069-073-074-221100-
CENTRAL EAST TENNESSEE

CITY           SKY/WX    TMP DP  RH WIND       PRES   REMARKS
KNOXVILLE      MOCLDY    73  69  87 W5        30.08R
OAK RIDGE      PTCLDY    74  72  93 CALM      30.10R
GATLINBURG     PTSUNNY   68  66  94 CALM      30.09R
MORRISTOWN     SUNNY     72  72 100 CALM      30.11S
$$

TNZ083-085-099-221100-
SOUTHEAST TENNESSEE

CITY           SKY/WX    TMP DP  RH WIND       PRES   REMARKS
CHATTANOOGA    CLEAR     75  71  87 CALM      30.07S
$$

SKY/WX REPORTED AS FAIR MEANS FEW OR NO CLOUDS BELOW
12 THOUSAND FEET.



USA.gov is the U.S. government's official web portal to all federal, state and local government web resources and services.